AMQ4275 EPWR-DTMB

Flight info

Callsign AMQ4275
Flight time N/A
Altitude 36000
Route BNO DCT MIKOV DCT PIBIP DCT CRE DCT IBENI/N0444F370 DCT GERBU DCT OKUNO DCT RIFFI DCT RONAB DCT ERPEM DCT TUNEX UG737 CBN UM738 DIDON G727 ATLEL ATLEL1R
Aircraft A320/M-SDE3FGHIRWY/LB1

Departure

Time 2026-05-04 13:52
Airport Copernicus Wrocław Airport (EPWR)

Arrival

Time N/A
Airport Monastir Habib Bourguiba International Airport (DTMB)
Time Latitude Longitude Altitude Speed Heading
2026-05-04 13:10 51.10902 16.87885 401 ft 0 kts 25°
2026-05-04 13:40 51.10885 16.87872 400 ft 4 kts 26°
2026-05-04 13:41 51.10861 16.87856 401 ft 4 kts 10°
2026-05-04 13:41 51.10836 16.87857 400 ft 4 kts 328°
2026-05-04 13:41 51.10826 16.87871 403 ft 0 kts 296°
2026-05-04 13:45 51.10827 16.87868 402 ft 2 kts 296°
2026-05-04 13:45 51.10841 16.87823 399 ft 6 kts 296°
2026-05-04 13:45 51.10862 16.87753 402 ft 8 kts 296°
2026-05-04 13:45 51.10891 16.87661 403 ft 10 kts 296°
2026-05-04 13:46 51.10926 16.87547 403 ft 13 kts 296°
2026-05-04 13:46 51.10938 16.87419 401 ft 12 kts 221°
2026-05-04 13:46 51.10859 16.87355 403 ft 13 kts 206°
2026-05-04 13:46 51.10780 16.87294 403 ft 10 kts 205°
2026-05-04 13:47 51.10772 16.87288 403 ft 0 kts 205°
2026-05-04 13:47 51.10770 16.87287 403 ft 0 kts 205°
2026-05-04 13:47 51.10769 16.87286 403 ft 1 kts 205°
2026-05-04 13:47 51.10717 16.87245 404 ft 16 kts 198°
2026-05-04 13:48 51.10642 16.87365 401 ft 18 kts 115°
2026-05-04 13:48 51.10583 16.87555 402 ft 20 kts 115°
2026-05-04 13:48 51.10518 16.87767 402 ft 22 kts 116°
2026-05-04 13:48 51.10450 16.87992 403 ft 23 kts 115°
2026-05-04 13:49 51.10380 16.88224 406 ft 24 kts 116°
2026-05-04 13:49 51.10302 16.88471 403 ft 25 kts 116°
2026-05-04 13:49 51.10220 16.88736 404 ft 28 kts 116°
2026-05-04 13:49 51.10133 16.89022 400 ft 29 kts 116°
2026-05-04 13:50 51.10045 16.89307 401 ft 29 kts 116°
2026-05-04 13:50 51.09961 16.89573 401 ft 26 kts 116°
2026-05-04 13:50 51.09900 16.89750 403 ft 10 kts 68°
2026-05-04 13:50 51.09917 16.89723 400 ft 5 kts 295°
2026-05-04 13:51 51.09965 16.89567 405 ft 43 kts 296°
2026-05-04 13:51 51.10199 16.88805 402 ft 106 kts 296°
2026-05-04 13:51 51.10611 16.87456 405 ft 154 kts 295°
2026-05-04 13:51 51.11073 16.85956 961 ft 148 kts 296°
2026-05-04 13:52 51.12000 16.82937 1764 ft 167 kts 295°
2026-05-04 13:52 51.12533 16.81185 2110 ft 180 kts 296°
2026-05-04 13:52 51.12938 16.79178 2384 ft 200 kts 270°
2026-05-04 13:53 51.12486 16.77020 2652 ft 220 kts 230°
2026-05-04 13:53 51.11135 16.75710 2901 ft 244 kts 189°
2026-05-04 13:53 51.09388 16.76043 3347 ft 263 kts 158°
2026-05-04 13:54 51.06190 16.79038 5060 ft 271 kts 146°
2026-05-04 13:54 51.04651 16.80790 5948 ft 274 kts 146°
2026-05-04 13:54 51.01453 16.84322 7535 ft 283 kts 150°
2026-05-04 13:55 50.99788 16.86013 8331 ft 286 kts 151°
2026-05-04 13:55 50.96371 16.89347 9924 ft 291 kts 152°
2026-05-04 13:55 50.94585 16.91063 10394 ft 306 kts 152°
2026-05-04 13:56 50.92697 16.92873 10563 ft 329 kts 152°
2026-05-04 13:56 50.90661 16.94829 10924 ft 343 kts 152°
2026-05-04 13:56 50.87246 16.98129 12020 ft 349 kts 152°
2026-05-04 13:57 50.85250 17.00060 12686 ft 351 kts 152°
2026-05-04 13:57 50.83043 17.02192 13443 ft 354 kts 152°
2026-05-04 13:58 50.76655 17.08347 15216 ft 364 kts 152°
2026-05-04 13:58 50.72256 17.12575 16322 ft 371 kts 153°
2026-05-04 13:58 50.70009 17.14729 16881 ft 374 kts 153°
2026-05-04 13:59 50.67746 17.16889 17470 ft 378 kts 153°
2026-05-04 13:59 50.65469 17.19058 18041 ft 382 kts 153°
2026-05-04 13:59 50.60845 17.23463 19107 ft 389 kts 152°
2026-05-04 14:00 50.58537 17.25666 19628 ft 392 kts 152°
2026-05-04 14:00 50.53795 17.30181 20689 ft 399 kts 152°
2026-05-04 14:00 50.51340 17.32511 21206 ft 403 kts 152°
2026-05-04 14:01 50.48927 17.34792 21680 ft 406 kts 151°
2026-05-04 14:01 50.46498 17.37088 22147 ft 410 kts 151°
2026-05-04 14:01 50.41389 17.40999 23093 ft 411 kts 167°
2026-05-04 14:02 50.38559 17.41793 23531 ft 412 kts 179°
2026-05-04 14:02 50.35666 17.41650 23896 ft 412 kts 191°
2026-05-04 14:02 50.32885 17.40605 24266 ft 411 kts 201°
2026-05-04 14:02 50.30216 17.38960 24645 ft 413 kts 204°
2026-05-04 14:03 50.27547 17.37295 25012 ft 415 kts 203°
2026-05-04 14:03 50.24811 17.35602 25393 ft 417 kts 204°
2026-05-04 14:03 50.22112 17.33938 25815 ft 417 kts 204°
2026-05-04 14:03 50.19396 17.32261 26155 ft 419 kts 204°
2026-05-04 14:04 50.13910 17.28881 26832 ft 424 kts 204°
2026-05-04 14:04 50.11121 17.27170 27209 ft 426 kts 204°
2026-05-04 14:04 50.08345 17.25466 27537 ft 428 kts 204°
2026-05-04 14:05 50.02742 17.22020 28180 ft 433 kts 204°
2026-05-04 14:05 50.00002 17.20337 28502 ft 435 kts 204°
2026-05-04 14:05 49.97057 17.18532 28842 ft 437 kts 203°
2026-05-04 14:06 49.94217 17.16799 29201 ft 439 kts 203°
2026-05-04 14:06 49.91272 17.15011 29698 ft 437 kts 203°
2026-05-04 14:06 49.88413 17.13277 30190 ft 435 kts 204°
2026-05-04 14:06 49.85594 17.11566 30594 ft 434 kts 204°
2026-05-04 14:07 49.82781 17.09852 30977 ft 434 kts 204°
2026-05-04 14:07 49.80903 17.08706 31261 ft 433 kts 204°
2026-05-04 14:07 49.78087 17.06987 31655 ft 432 kts 204°
2026-05-04 14:07 49.75255 17.05262 32073 ft 431 kts 204°
2026-05-04 14:08 49.72430 17.03545 32475 ft 430 kts 204°
2026-05-04 14:08 49.69601 17.01836 32888 ft 430 kts 203°
2026-05-04 14:08 49.66823 17.00169 33293 ft 429 kts 203°
2026-05-04 14:08 49.64011 16.98483 33705 ft 428 kts 204°
2026-05-04 14:09 49.58549 16.95193 34373 ft 427 kts 203°
2026-05-04 14:09 49.55773 16.93522 34680 ft 427 kts 204°
2026-05-04 14:10 49.50134 16.90140 35289 ft 426 kts 204°
2026-05-04 14:10 49.47337 16.88465 35572 ft 426 kts 204°
2026-05-04 14:10 49.44586 16.86816 35861 ft 425 kts 204°
2026-05-04 14:10 49.41812 16.85161 35982 ft 427 kts 204°
2026-05-04 14:11 49.39008 16.83489 36002 ft 433 kts 204°
2026-05-04 14:11 49.30624 16.78503 36005 ft 437 kts 204°
2026-05-04 14:12 49.24765 16.75033 36005 ft 438 kts 204°
2026-05-04 14:13 49.16174 16.69999 35998 ft 440 kts 200°
2026-05-04 14:13 49.09850 16.68238 36003 ft 444 kts 189°
2026-05-04 14:14 49.03629 16.67027 36007 ft 444 kts 189°
2026-05-04 14:14 48.95330 16.65383 36006 ft 445 kts 190°
2026-05-04 14:15 48.82990 16.62987 36002 ft 445 kts 189°
2026-05-04 14:16 48.76727 16.61070 36001 ft 441 kts 203°
2026-05-04 14:16 48.73950 16.59425 35985 ft 440 kts 204°
2026-05-04 14:17 48.65201 16.54307 35983 ft 442 kts 203°
2026-05-04 14:18 48.56363 16.49182 35986 ft 442 kts 204°
2026-05-04 14:19 48.44848 16.42462 35982 ft 443 kts 204°
2026-05-04 14:19 48.39009 16.39088 35979 ft 443 kts 204°
2026-05-04 14:20 48.34448 16.36456 35979 ft 443 kts 204°
2026-05-04 14:20 48.28277 16.32905 35984 ft 443 kts 204°
2026-05-04 14:21 48.19612 16.27921 35984 ft 443 kts 204°
2026-05-04 14:21 48.13770 16.24572 35978 ft 443 kts 204°
2026-05-04 14:22 48.08040 16.21299 35980 ft 443 kts 204°
2026-05-04 14:22 48.02134 16.17933 35985 ft 443 kts 204°
2026-05-04 14:23 47.93440 16.13000 35983 ft 444 kts 203°
2026-05-04 14:24 47.87633 16.09712 35989 ft 443 kts 204°
2026-05-04 14:24 47.82816 16.06980 35991 ft 443 kts 203°
2026-05-04 14:25 47.76098 16.03190 35998 ft 443 kts 204°
2026-05-04 14:25 47.67402 15.98309 36005 ft 444 kts 204°
2026-05-04 14:26 47.61625 15.95072 36008 ft 444 kts 203°
2026-05-04 14:26 47.55855 15.91839 36009 ft 443 kts 204°
2026-05-04 14:27 47.50080 15.88617 36013 ft 444 kts 203°
2026-05-04 14:27 47.44305 15.85402 36018 ft 443 kts 204°
2026-05-04 14:28 47.38561 15.82212 36013 ft 444 kts 203°
2026-05-04 14:28 47.32722 15.78971 36016 ft 443 kts 203°
2026-05-04 14:29 47.21845 15.72969 36016 ft 443 kts 203°
2026-05-04 14:30 47.16029 15.69764 36016 ft 443 kts 203°
2026-05-04 14:31 47.07382 15.65028 36017 ft 443 kts 202°